     2.10           OBSERVATION DATA    G (GPS)             RINEX VERSION / TYPE
teqc 2002Apr3 Duncan Agnew 20050511 23:58:22UTC             PGM / RUN BY / DATE
OSX 5.3|G3|cc|OSX 5.3+|G3+                                  COMMENT
BIT 2 OF LLI FLAGS DATA COLLECTED UNDER A/S CONDITION       COMMENT
CALIPATRIA 2 NO 5 1948                                      MARKER NAME
6892                                                        MARKER NUMBER
Juan Vargas Nolte Engineering                               OBSERVER / AGENCY
220136892 TRIMBLE 4800 NP 1.20 / SP 1.43                    REC # / TYPE / VERS
N/A TRM4800                                                 ANT # / TYPE
 -2301465.0000 -4823239.0000  3469580.0000                  APPROX POSITION XYZ
        2.0000        0.0000        0.0000                  ANTENNA: DELTA H/E/N
     1     1                                                WAVELENGTH FACT L1/2
     7    C1    L1    L2    P1    P2    S1    S2            # / TYPES OF OBSERV
SNR is mapped to RINEX snr flag value [1-9]                 COMMENT
L1: 3 -> 1; 8 -> 5; 40 -> 9                                 COMMENT
L2: 1 -> 1; 5 -> 5; 60 -> 9                                 COMMENT
  2004     7     7    15    31   20.0000000     GPS         TIME OF FIRST OBS
                                                            END OF HEADER
 04  7  7 15 31 20.0000000  0  9G 3G 6G15G16G18G21G22G26G29
  23839847.1204    -726040.68059   -554819.26257                  23839845.4354
        43.5004         26.7504
  22301650.5394    1591337.20359   1213511.89157                  22301649.4404
        48.7504         35.5004
  22026151.6124    -446902.31659   -341219.16157                  22026149.9944
        48.7504         36.2504
  24119386.1464     894124.53159    679741.34256                  24119384.1674
        43.0004         22.5004
  20588328.0844     480715.86759    368072.67858                  20588324.8294
        51.5004         44.2504
  20632009.3904     365456.96959    278859.88458                  20632005.7944
        52.7504         43.7504
  21485662.8114    -177473.41059   -135372.18258                  21485659.0014
        52.5004         40.7504
  22809793.0954    1412249.53959   1078465.26157                  22809791.3244
        46.5004         31.5004
  24221021.7824    1503223.52759   1140761.93556                  24221020.9154
        37.5004         24.0004
 04  7  7 15 31 30.0000000  0  9G 3G 6G15G16G18G21G22G26G29
  23836359.7994    -744366.11749   -569098.84447                  23836358.2124
        43.5004         27.5004
  22309635.2754    1633295.83249   1246206.90347                  22309633.8104
        48.2504         36.0004
  22023971.3444    -458358.53549   -350146.08647                  22023969.5214
        48.0004         36.2504
  24124009.0224     918416.66849    698670.23346                  24124006.5914
        42.2504         22.2504
  20590842.5524     493928.54749    378368.26848                  20590838.8184
        52.2504         44.2504
  20633915.1214     375471.98449    286663.80248                  20633911.6344
        52.5004         44.0004
  21484919.3254    -181380.18449   -138416.42248                  21484915.0834
        52.7504         41.2504
  22816974.5614    1449988.03549   1107871.84947                  22816972.6914
        46.2504         30.7504
  24228653.4504    1543329.46549   1172013.28346                  24228652.4434
        40.2504         23.5004
 04  7  7 15 31 40.0000000  0  9G 3G 6G15G16G18G21G22G26G29
  23832877.3814    -762667.86349   -583359.94347                  23832875.7104
        43.5004         27.7504
  22317624.4814    1675278.84849   1278920.91747                  22317623.3344
        47.2504         35.2504
  22021791.8254    -469813.06649   -359071.69647                  22021789.3244
        48.2504         35.5004
  24128638.0784     942740.76249    717624.07546                  24128635.8174
        43.0004         23.5004
  20593362.5034     507170.46149    388686.63348                  20593358.7564
        52.0004         44.0004
  20635824.9834     385507.28149    294483.50448                  20635821.3764
        52.0004         43.0004
  21484181.4764    -185257.67249   -141437.84048                  21484176.9704
        52.5004         40.0004
  22824164.9544    1487771.48849   1137313.50447                  22824162.8274
        46.0004         30.2504
  24236289.6594    1583459.91849   1203283.69946                  24236289.0824
        38.5004         23.5004
 04  7  7 15 31 50.0000000  0  9G 3G 6G15G16G18G21G22G26G29
  23829400.1154    -780940.48449   -597598.34547                  23829398.8054
        43.0004         27.0004
  22325618.7034    1717291.37949   1311657.94247                  22325617.9534
        47.7504         35.5004
  22019613.3794    -481260.55149   -367991.81347                  22019611.1604
        48.7504         36.2504
  24133273.4234     967102.00849    736606.80346                  24133271.3954
        42.7504         23.0004
  20595888.7114     520446.87949    399031.89848                  20595885.0974
        52.5004         44.5004
  20637739.4794     395568.29749    302323.25748                  20637735.6514
        52.5004         43.5004
  21483449.9704    -189100.48849   -144432.22848                  21483445.9684
        52.0004         40.5004
  22831364.4094    1525605.13749   1166794.24547                  22831362.5654
        46.5004         31.5004
  24243932.4474    1623620.06649   1234577.35046                  24243931.4744
        40.0004         23.0004
 04  7  7 15 32  0.0000000  0  9G 3G 6G15G16G18G21G22G26G29
  23825927.2034    -799190.11349   -611818.82447                  23825926.0934
        43.5004         28.7504
  22333617.6964    1759327.17249   1344413.07147                  22333617.1384
        47.5004         35.0004
  22017434.9304    -492707.14849   -376911.25047                  22017433.1124
        48.5004         36.5004
  24137914.4134     991494.12549    755613.67546                  24137913.6104
        42.0004         23.7504
  20598420.3954     533751.52049    409399.14848                  20598416.7564
        52.0004         44.7504
  20639657.8254     405648.87949    310178.24548                  20639654.1904
        52.5004         43.5004
  21482724.1414    -192914.93049   -147404.52648                  21482720.1464
        52.5004         41.0004
  22838571.7524    1563482.57049   1196309.12947                  22838570.2724
        46.5004         31.2504
  24251579.1474    1663803.57049   1265889.14046                  24251578.1804
        40.0004         25.0004
 04  7  7 15 32 10.0000000  0  9G 3G 6G15G16G18G21G22G26G29
  23822459.6754    -817412.96149   -626018.42147                  23822459.0734
        42.5004         29.0004
  22341622.6944    1801389.73449   1377189.08247                  22341621.4204
        47.2504         35.7504
  22015257.9644    -504149.17249   -385827.10447                  22015255.9084
        48.5004         36.5004
  24142563.2794    1015920.71549    774647.34146                  24142561.5994
        42.2504         23.5004
  20600958.3774     547087.93049    419791.16048                  20600954.6064
        52.0004         45.0004
  20641580.1004     415752.63749    318051.32048                  20641576.7104
        52.7504         43.7504
  21482004.5334    -196697.31249   -150351.83448                  21482000.1684
        52.5004         41.2504
  22845788.8604    1601407.43049   1225860.94747                  22845787.1104
        45.7504         30.5004
  24259230.6004    1704014.14849   1297222.05346                  24259229.9394
        39.5004         23.5004
 04  7  7 15 32 20.0000000  0  9G 3G 6G15G16G18G21G22G26G29
  23818995.7784    -835613.45349   -640200.64747                  23818994.9874
        43.0004         28.5004
  22349630.7184    1843474.60949   1409982.45747                  22349629.3194
        48.0004         36.0004
  22013080.3644    -515591.10549   -394742.89647                  22013079.2064
        47.5004         37.0004
  24147217.6654    1040377.15649    793704.29047                  24147215.3344
        42.5004         26.0004
  20603501.2904     560451.69949    430204.48148                  20603497.1424
        52.0004         44.5004
  20643506.4994     425875.12149    325938.95348                  20643503.1074
        52.0004         43.7504
  21481290.0404    -200452.10549   -153277.65648                  21481285.4874
        51.7504         42.0004
  22853013.8664    1639375.02349   1255446.06547                  22853012.2214
        45.5004         31.0004
  24266887.0364    1744247.18849   1328572.44047                  24266886.2244
        39.5004         26.0004
 04  7  7 15 32 30.0000000  0  9G 3G 6G15G16G18G21G22G26G29
  23815536.9104    -853791.01249   -654364.97147                  23815535.9494
        42.7504         28.0004
  22357643.9484    1885581.98049   1442793.37647                  22357642.6804
        48.0004         35.7504
  22010903.4274    -527032.44549   -403658.22847                  22010901.3964
        48.5004         36.7504
  24151877.7074    1064863.83249    812784.80846                  24151874.9134
        42.5004         22.7504
  20606049.7434     573843.12549    440639.34548                  20606045.8694
        52.0004         44.2504
  20645436.5594     436016.88749    333841.61748                  20645432.8354
        52.2504         43.2504
  21480580.5924    -204178.90649   -156181.65948                  21480576.2924
        53.0004         42.0004
  22860246.9834    1677385.80149   1285064.85247                  22860245.0564
        46.0004         30.0004
  24274547.2704    1784502.93449   1359940.55146                  24274546.4004
        39.2504         24.5004
 04  7  7 15 32 40.0000000  0  9G 3G 6G15G16G18G21G22G26G29
  23812083.5674    -871942.02349   -668508.59047                  23812081.3044
        42.7504         27.0004
  22365661.5844    1927715.49249   1475624.66947                  22365659.9834
        47.7504         35.7504
  22008726.9244    -538469.54349   -412570.24147                  22008725.6204
        48.2504         36.7504
  24156542.8224    1089384.28549    831891.65746                  24156541.1904
        42.2504         25.2504
  20608604.1064     587265.65649    451098.46348                  20608600.5854
        52.0004         44.2504
  20647370.8964     446181.44149    341762.06048                  20647367.4634
        52.7504         43.2504
  21479877.3834    -207874.19549   -159061.10048                  21479873.6264
        52.5004         41.2504
  22867489.0284    1715443.08649   1314719.87047                  22867487.4574
        45.7504         31.0004
  24282212.5954    1824784.88349   1391329.05946                  24282211.5584
        39.5004         24.7504
 04  7  7 15 32 50.0000000  0  9G 3G 6G15G16G18G21G22G26G29
  23808632.8044    -890068.93449   -682633.47447                  23808632.5614
        42.0004         27.0004
  22373684.2944    1969872.54749   1508474.29847                  22373681.7534
        48.0004         35.0004
  22006550.6164    -549904.88349   -421480.90047                  22006549.4954
        48.5004         36.5004
  24161215.3694    1113935.88749    851022.75846                  24161213.5514
        41.7504         22.5004
  20611163.7324     600716.85949    461579.91348                  20611160.2224
        52.2504         44.0004
  20649308.9074     456366.35949    349698.34848                  20649305.3644
        52.0004         43.0004
  21479180.0314    -211540.42249   -161917.89948                  21479176.2994
        52.2504         41.0004
  22874739.6764    1753544.38349   1344409.16647                  22874738.0304
        46.0004         30.5004
  24289883.4494    1865090.45349   1422736.00346                  24289881.7274
        40.0004         24.5004
 04  7  7 15 33  0.0000000  0  9G 3G 6G15G16G18G21G22G26G29
  23805188.7484    -908170.53149   -696738.61447                  23805187.9164
        42.0004         27.7504
  22381711.2484    2012054.19949   1541343.10547                  22381708.9604
        48.5004         36.0004
  22004375.3474    -561337.31649   -430389.29447                  22004373.6954
        48.0004         36.5004
  24165893.3034    1138519.68849    870178.89046                  24165891.8584
        42.7504         25.0004
  20613729.0614     614197.82449    472084.55848                  20613725.1584
        52.0004         44.5004
  20651251.0654     466572.80549    357651.41348                  20651246.9414
        52.5004         43.5004
  21478488.1764    -215176.53149   -164751.23548                  21478483.9984
        52.2504         41.2504
  22881999.1964    1791690.68049   1374133.54247                  22881997.0274
        44.7504         30.5004
  24297557.1374    1905420.75049   1454162.21146                  24297556.1824
        39.5004         24.7504
 04  7  7 15 33 10.0000000  0  9G 3G 6G15G16G18G21G22G26G29
  23801748.8624    -926245.12949   -710822.71147                  23801748.3724
        42.2504         28.2504
  22389742.9844    2054261.73449   1574232.07747                  22389741.3354
        48.5004         35.2504
  22002200.1834    -572765.30949   -439294.21847                  22002199.0604
        47.5004         35.5004
  24170578.0594    1163137.09849    889361.32346                  24170576.2544
        42.5004         23.7504
  20616299.9884     627710.05549    482613.56748                  20616296.7254
        52.0004         44.7504
  20653197.5144     476802.38349    365622.51348                  20653193.9024
        52.5004         43.0004
  21477802.0084    -218780.91849   -167559.85448                  21477798.3854
        52.5004         41.2504
  22889266.4074    1829883.44149   1403894.10947                  22889265.3424
        45.5004         31.2504
  24305236.7504    1945777.05149   1485608.65446                  24305235.6294
        40.7504         25.2504
 04  7  7 15 33 20.0000000  0  9G 3G 6G15G16G18G21G22G26G29
  23798314.7104    -944293.95749   -724886.70647                  23798313.7614
        42.5004         27.5004
  22397779.4124    2096493.81349   1607140.17247                  22397777.2294
        48.7504         35.2504
  22000026.6964    -584190.10249   -448196.64847                  22000024.6684
        48.2504         36.7504
  24175268.5484    1187786.64849    908568.73246                  24175267.1124
        43.0004         24.5004
  20618877.1034     641252.15249    493165.84348                  20618873.6754
        52.5004         45.0004
  20655148.7234     487053.87949    373610.69048                  20655145.1444
        52.5004         43.5004
  21477122.2424    -222354.94149   -170344.80948                  21477118.2554
        52.2504         41.5004
  22896542.5594    1868121.09849   1433689.67147                  22896541.4644
        45.0004         31.5004
  24312921.0814    1986158.10549   1517074.40146                  24312920.0904
        40.0004         24.0004
 04  7  7 15 33 30.0000000  0  9G 3G 6G15G16G18G21G22G26G29
  23794884.8544    -962317.73449   -738931.24347                  23794883.6334
        43.0004         28.0004
  22405820.1394    2138749.52049   1640066.68447                  22405818.4014
        47.7504         35.5004
  21997853.1574    -595612.48449   -457097.21047                  21997851.7804
        48.2504         37.2504
  24179965.5304    1212467.35249    927800.41947                  24179963.4704
        42.5004         26.0004
  20621459.6764     654823.13749    503740.63248                  20621456.2964
        51.5004         45.0004
  20657103.2264     497326.43849    381615.27448                  20657099.8574
        52.5004         43.5004
  21476447.1654    -225899.51649   -173106.80848                  21476443.6714
        52.2504         41.7504
  22903827.1124    1906402.83249   1463519.60547                  22903826.0364
        45.0004         31.0004
  24320609.5674    2026562.85949   1548558.58446                  24320608.9704
        39.0004         24.5004
 04  7  7 15 33 40.0000000  0  9G 3G 6G15G16G18G21G22G26G29
  23791459.7844    -980316.89549   -752956.55146                  23791458.5524
        43.5004         25.5004
  22413865.9454    2181028.34449   1673011.20047                  22413864.0864
        48.7504         35.0004
  21995679.4064    -607032.92249   -465996.25147                  21995677.7524
        49.0004         37.2504
  24184667.4654    1237178.80549    947056.08346                  24184666.1044
        42.5004         22.7504
  20624047.5144     668422.56649    514337.58948                  20624043.9954
        51.5004         44.5004
  20659062.2774     507619.64849    389635.95148                  20659058.0904
        52.0004         43.0004
  21475778.3634    -229415.07449   -175846.21348                  21475774.5444
        52.0004         41.5004
  22911120.5964    1944728.09049   1493383.39047                  22911119.2664
        46.0004         31.0004
  24328303.0744    2066990.83249   1580060.88446                  24328302.2504
        40.5004         23.5004
 04  7  7 15 33 50.0000000  0  9G 3G 6G15G16G18G21G22G26G29
  23788039.6884    -998290.66449   -766962.09747                  23788038.3014
        43.0004         26.7504
  22421915.5794    2223330.83649   1705974.17747                  22421914.1464
        47.7504         34.5004
  21993507.1434    -618450.60549   -474893.13647                  21993505.5654
        49.0004         37.0004
  24189376.3194    1261921.59049    966336.13546                  24189374.4804
        42.2504         24.0004
  20626640.7494     682051.15249    524957.27248                  20626637.4254
        52.5004         44.2504
  20661024.6184     517934.25449    397673.31348                  20661021.5644
        52.5004         43.0004
  21475115.1054    -232900.87549   -178562.41348                  21475111.0414
        52.7504         41.2504
  22918421.8974    1983097.33649   1523281.50947                  22918420.7604
        45.5004         30.2504
  24336001.4104    2107442.55149   1611581.69846                  24336000.5154
        39.5004         23.0004
 04  7  7 15 34  0.0000000  0  9G 3G 6G15G16G18G21G22G26G29
  23784623.7194   -1016240.50449   -780948.98747                  23784622.1654
        43.7504         27.7504
  22429969.7464    2265655.34849   1738954.30947                  22429968.5844
        48.2504         34.2504
  21991334.5334    -629867.19149   -483789.17747                  21991333.1184
        48.7504         36.7504
  24194090.6424    1286693.97749    985639.28646                  24194088.5534
        43.2504         23.0004
  20629239.6184     695707.12549    535598.28248                  20629236.4084
        52.0004         44.2504
  20662991.5704     528268.60249    405726.05048                  20662987.7054
        52.0004         43.0004
  21474457.0354    -236358.63749   -181256.76448                  21474453.3054
        52.2504         41.2504
  22925731.6374    2021509.02749   1553212.67847                  22925730.0284
        45.0004         31.0004
  24343702.7044    2147916.46949   1643119.79646                  24343702.4664
        39.2504         23.5004
 04  7  7 15 34 10.0000000  0  9G 3G 6G15G16G18G21G22G26G29
  23781212.2794   -1034167.30549   -794917.90747                  23781210.9804
        43.5004         28.0004
  22438027.9644    2308000.94949   1771950.86647                  22438026.2834
        47.7504         34.0004
  21989161.8534    -641283.56649   -492685.05647                  21989159.8924
        49.0004         37.0004
  24198809.5784    1311494.96949   1004964.71246                  24198807.8914
        43.0004         22.7504
  20631843.3634     709389.58649    546259.94248                  20631840.1234
        52.5004         44.0004
  20664961.4294     538621.85949    413793.50948                  20664957.9484
        52.0004         43.0004
  21473804.1364    -239789.22749   -183929.95848                  21473800.4844
        52.2504         40.7504
  22933048.7764    2059962.03149   1583176.03947                  22933047.6064
        45.5004         30.0004
  24351408.0244    2188411.43449   1674674.26746                  24351407.8914
        37.5004         22.7504
 04  7  7 15 34 20.0000000  0  9G 3G 6G15G16G18G21G22G26G29
  23777806.2524   -1052068.17649   -808866.66747                  23777805.0994
        43.2504         28.2504
  22446090.0724    2350370.19949   1804965.84347                  22446088.5904
        47.7504         34.5004
  21986989.9454    -652696.86749   -501578.52947                  21986988.0954
        49.5004         36.7504
  24203534.8514    1336327.29349   1024314.54846                  24203533.3454
        42.5004         22.5004
  20634452.3324     723101.24249    556944.34548                  20634449.2844
        52.0004         44.5004
  20666935.9614     548996.83249    421877.91048                  20666932.3844
        52.0004         43.2504
  21473156.9714    -243189.91449   -186579.83748                  21473153.3784
        52.7504         41.0004
  22940374.5674    2098458.93849   1613173.62847                  22940373.2764
        45.5004         29.7504
  24359119.7424    2228930.10949   1706247.28746                  24359118.4524
        39.0004         22.2504
 04  7  7 15 34 30.0000000  0  9G 3G 6G15G16G18G21G22G26G29
  23774403.9314   -1069944.72349   -822796.47047                  23774403.2084
        43.0004         28.0004
  22454156.4814    2392761.36749   1837997.91347                  22454154.9694
        47.5004         34.0004
  21984818.7494    -664108.82849   -510470.97247                  21984816.8264
        49.7504         37.0004
  24208266.0384    1361189.03149   1043687.30146                  24208264.6284
        42.5004         23.5004
  20637066.9154     736840.36349    567650.14848                  20637063.4374
        51.0004         44.5004
  20668914.0154     559391.62149    429977.73048                  20668910.6044
        52.5004         43.0004
  21472515.3934    -246562.39849   -189207.75148                  21472511.5594
        52.7504         41.5004
  22947708.1744    2136998.03949   1643204.07447                  22947706.8874
        45.0004         29.7504
  24366833.6684    2269470.71149   1737837.34646                  24366833.5564
        40.5004         22.2504
 04  7  7 15 34 40.0000000  0  9G 3G 6G15G16G18G21G22G26G29
  23771007.5924   -1087795.41849   -836706.09147                  23771005.9454
        42.7504         28.2504
  22462228.5144    2435175.79349   1871048.08647                  22462226.8504
        47.5004         34.7504
  21982647.4044    -675517.91049   -519361.17247                  21982644.9494
        49.5004         37.0004
  24213003.4644    1386081.68049   1063084.15246                  24213001.6094
        42.5004         25.2504
  20639686.8564     750608.45349    578378.53148                  20639683.1614
        52.2504         44.7504
  20670895.9914     569808.09449    438094.46248                  20670892.6404
        51.7504         43.7504
  21471879.3824    -249905.18449   -191812.52648                  21471875.7544
        52.7504         42.0004
  22955049.8414    2175580.71549   1673268.47047                  22955049.1274
        45.2504         29.2504
  24374552.7994    2310034.66449   1769445.53946                  24374552.3884
        38.5004         21.7504
 04  7  7 15 34 50.0000000  0  9G 3G 6G15G16G18G21G22G26G29
  23767615.4434   -1105620.76649   -850595.95047                  23767614.3304
        43.2504         27.5004
  22470303.5514    2477612.70749   1904115.80247                  22470302.1354
        47.2504         34.0004
  21980476.6804    -686924.71549   -528249.58447                  21980474.5874
        49.2504         36.2504
  24217745.1244    1411004.46149   1082504.48246                  24217743.7854
        42.7504         23.0004
  20642311.9534     764404.68449    589128.84148                  20642308.9284
        52.0004         44.2504
  20672882.3904     580245.56649    446227.55348                  20672879.2204
        52.0004         43.2504
  21471248.5954    -253218.94149   -194394.67348                  21471244.7094
        52.7504         42.0004
  22962400.3214    2214206.20349   1703366.23047                  22962398.9364
        44.7504         29.5004
  24382276.3094    2350621.18049   1801071.43246                  24382276.3584
        40.2504         20.5004
 04  7  7 15 35  0.0000000  0  9G 3G 6G15G16G18G21G22G26G29
  23764227.8374   -1123422.32849   -864467.31447                  23764226.4984
        43.2504         27.0004
  22478383.0404    2520070.38749   1937199.69447                  22478381.5444
        47.2504         33.5004
  21978306.2414    -698330.87149   -537137.50247                  21978304.4374
        48.7504         35.7504
  24222493.6484    1435955.62549   1101946.90446                  24222492.4374
        41.7504         24.0004
  20644942.7404     778227.48849    599899.84848                  20644939.0864
        52.0004         43.7504
  20674872.2304     590702.37949    454375.71448                  20674868.7244
        52.2504         43.0004
  21470623.3754    -256505.40249   -196955.55248                  21470619.6954
        53.0004         41.2504
  22969758.7164    2252872.71549   1733495.93847                  22969757.0414
        44.5004         28.7504
  24390003.3124    2391228.57849   1832713.54546                  24390003.1884
        39.5004         22.0004
 04  7  7 15 35 10.0000000  0  9G 3G 6G15G16G18G21G22G26G29
  23760844.7904   -1141199.32049   -878319.51147                  23760843.4404
        42.5004         26.7504
  22486466.7584    2562549.55149   1970300.32847                  22486465.3564
        46.5004         33.7504
  21976135.6984    -709735.69549   -546024.37547                  21976134.3044
        48.7504         36.7504
  24227247.1614    1460935.75849   1121411.95046                  24227245.3864
        42.0004         24.0004
  20647578.0074     792077.34849    610691.94448                  20647574.6944
        51.7504         44.0004
  20676865.9234     601179.25449    462539.52148                  20676862.2024
        52.7504         43.0004
  21470003.4354    -259763.83249   -199494.59148                  21469999.2254
        52.5004         41.5004
  22977124.0394    2291580.85249   1763658.13147                  22977123.2544
        44.2504         29.7504
  24397734.6484    2431857.34049   1864372.28046                  24397734.1614
        38.2504         20.5004
 04  7  7 15 35 20.0000000  0  9G 3G 6G15G16G18G21G22G26G29
  23757466.6484   -1158950.56249   -892151.65847                  23757465.7204
        42.5004         26.2504
  22494554.5214    2605051.23449   2003418.49247                  22494553.2034
        47.2504         33.2504
  21973966.3194    -721137.94549   -554909.23647                  21973964.4044
        49.0004         36.2504
  24232005.4934    1485945.91849   1140900.36246                  24232004.9594
        41.5004         22.2504
  20650219.0034     805955.36349    621505.98148                  20650215.7344
        52.5004         43.5004
  20678863.5484     611677.37949    470719.86648                  20678860.2704
        52.5004         42.5004
  21469388.8114    -262993.12149   -202010.91348                  21469384.8914
        52.5004         41.5004
  22984498.3274    2330331.56649   1793853.46147                  22984497.4134
        43.7504         28.5004
  24405470.9034    2472508.61349   1896048.61746                  24405470.4334
        38.7504         20.5004
 04  7  7 15 35 30.0000000  0  9G 3G 6G15G16G18G21G22G26G29
  23754093.5364   -1176677.62949   -905964.97947                  23754092.2714
        42.7504         26.7504
  22502646.3324    2647573.51249   2036552.71947                  22502644.9614
        47.0004         33.5004
  21971796.3904    -732539.33649   -563793.43847                  21971795.1654
        48.5004         37.7504
  24236770.4354    1510984.27049   1160410.71946                  24236770.3734
        41.2504         25.2504
  20652865.2874     819859.81349    632340.61148                  20652861.6084
        52.0004         44.0004
  20680864.7874     622195.04349    478915.44948                  20680861.7344
        52.2504         43.0004
  21468779.6124    -266195.00049   -204505.89048                  21468775.6594
        52.5004         42.0004
  22991880.1644    2369123.10549   1824080.60447                  22991879.1074
        42.7504         29.5004
  24413210.5074    2513180.55949   1927740.99846                  24413209.3974
        39.0004         22.0004
 04  7  7 15 35 40.0000000  0  9G 3G 6G15G16G18G21G22G26G29
  23750725.2714   -1194378.62549   -919757.97347                  23750724.3024
        42.5004         27.0004
  22510741.8284    2690118.26649   2069704.45147                  22510739.9354
        47.0004         33.2504
  21969627.4544    -743937.97349   -572675.47647                  21969626.3664
        49.0004         37.7504
  24241541.1794    1536052.62149   1179944.44546                  24241540.2574
        41.0004         23.0004
  20655515.9214     833792.58249    643197.33048                  20655513.0454
        51.7504         44.2504
  20682870.4744     632734.18449    487127.76848                  20682867.2214
        52.5004         43.2504
  21468175.9234    -269367.55949   -206978.01448                  21468172.1024
        53.0004         42.2504
  22999270.4824    2407957.21549   1854340.94147                  22999269.3104
        44.0004         30.0004
  24420954.3844    2553874.93849   1959450.98346                  24420952.9834
        39.2504         21.0004
 04  7  7 15 35 50.0000000  0  9G 3G 6G15G16G18G21G22G26G29
  23747360.8204   -1212054.86349   -933531.65247                  23747360.3284
        42.0004         26.7504
  22518842.0074    2732683.79349   2102872.37647                  22518840.3294
        46.5004         33.5004
  21967458.8784    -755335.32449   -581556.54047                  21967457.4874
        48.2504         38.5004
  24246316.3554    1561149.40249   1199500.39446                  24246316.5144
        40.5004         22.7504
  20658172.5114     847752.03949    654074.81248                  20658169.7894
        52.0004         44.5004
  20684879.8754     643293.35249    495355.68948                  20684876.4544
        52.0004         43.5004
  21467577.7544    -272512.39549   -209428.53948                  21467573.2704
        52.2504         42.0004
  23006667.4314    2446832.30149   1884633.17547                  23006666.8504
        42.2504         29.7504
  24428701.4574    2594590.12549   1991176.98046                  24428700.7684
        38.7504         20.0004
 04  7  7 15 36  0.0000000  0  9G 3G 6G15G16G18G21G22G26G29
  23744001.9854   -1229707.18449   -947286.69647                  23744001.2544
        43.0004         27.7504
  22526945.4734    2775269.40649   2136055.96247                  22526944.0104
        46.5004         33.2504
  21965290.4224    -766732.13749   -590437.16647                  21965288.5774
        48.7504         38.2504
  24251098.3784    1586273.65249   1219077.68246                  24251097.5454
        40.7504         22.7504
  20660833.6924     861737.32849    664972.43148                  20660830.8104
        52.5004         44.5004
  20686892.9674     653871.64549    503598.50848                  20686889.3284
        52.5004         43.2504
  21466984.2044    -275630.27749   -211858.05748                  21466980.1534
        52.7504         42.5004
  23014073.2984    2485747.37149   1914956.58347                  23014072.1464
        44.0004         30.2504
  24436454.1694    2635325.30949   2022918.71246                  24436452.7274
        38.2504         20.5004
 04  7  7 15 36 10.0010000  0  9G 3G 6G15G16G18G21G22G26G29
  23740646.8054   -1247336.91849   -961024.14847                  23740646.2504
        43.0004         27.0004
  22535054.3204    2817879.35249   2169258.48947                  22535052.4314
        46.7504         32.5004
  21963120.6794    -778129.18049   -599317.98047                  21963119.2034
        48.5004         37.7504
  24255884.8064    1611428.07049   1238678.50746                  24255884.0574
        41.0004         22.2504
  20663500.5274     875750.23049    675891.56448                  20663497.2494
        52.0004         44.0004
  20688909.7584     664470.56649    511857.40648                  20688906.4034
        52.7504         43.0004
  21466395.6624    -278721.28549   -214266.63648                  21466392.0684
        52.0004         42.0004
  23021487.3924    2524706.60949   1945314.39447                  23021485.4984
        43.7504         29.2504
  24444210.0364    2676084.67249   2054679.24746                  24444209.1414
        37.7504         21.0004
 04  7  7 15 36 20.0010000  0  9G 3G 6G15G16G18G21G22G26G29
  23737297.8854   -1264938.62549   -974739.75647                  23737297.0784
        43.0004         28.0004
  22543166.1014    2860506.91449   2202474.76547                  22543164.4524
        47.0004         33.2504
  21960953.4954    -789522.31649   -608195.74247                  21960951.8864
        48.0004         37.2504
  24260676.9254    1636609.46549   1258300.35146                  24260675.1544
        41.0004         22.2504
  20666172.2524     889789.66049    686831.38748                  20666169.2294
        52.2504         44.0004
  20690930.7924     675089.89149    520132.21048                  20690927.3294
        52.7504         43.0004
  21465813.3564    -281782.94949   -216652.34648                  21465809.5244
        52.5004         42.0004
  23028907.7854    2563703.94149   1975701.92947                  23028906.7074
        43.0004         29.0004
  24451969.5114    2716861.79349   2086453.61546                  24451968.0534
        39.5004         20.5004
 04  7  7 15 36 30.0010000  0  9G 3G 6G15G16G18G21G22G26G29
  23733953.3244   -1282516.68449   -988436.93947                  23733952.6734
        43.5004         28.2504
  22551281.6674    2903153.52049   2235705.87147                  22551280.0294
        47.5004         32.7504
  21958785.0334    -800915.37549   -617073.44947                  21958783.7044
        49.0004         37.2504
  24265474.0004    1661817.48449   1277942.98446                  24265472.1564
        42.0004         22.2504
  20668848.6444     903854.19949    697790.75948                  20668845.1594
        51.7504         44.0004
  20692955.0254     685727.94949    528421.59348                  20692951.3964
        52.5004         43.0004
  21465235.6574    -284818.35249   -219017.58548                  21465231.7144
        52.7504         41.7504
  23036336.6434    2602740.37149   2006119.89847                  23036335.2824
        44.0004         29.7504
  24459732.8914    2757658.13349   2118242.96846                  24459731.7394
        38.5004         21.7504
 04  7  7 15 36 40.0010000  0  9G 3G 6G15G16G18G21G22G26G29
  23730612.5634   -1300070.28549  -1002115.07447                  23730612.4104
        43.2504         28.5004
  22559400.6064    2945819.91049   2268952.38247                  22559399.3724
        46.7504         32.7504
  21956617.0374    -812307.60549   -625950.51347                  21956615.2724
        49.0004         37.2504
  24270276.1874    1687052.75049   1297606.80946                  24270274.7774
        41.5004         21.2504
  20671530.0264     917944.52349    708770.22548                  20671526.7914
        51.2504         44.0004
  20694982.6844     696385.48049    536726.16148                  20694979.0094
        52.2504         43.2504
  21464663.1744    -287826.77749   -221361.80648                  21464659.6644
        52.7504         42.0004
  23043772.1764    2641816.52349   2036568.83447                  23043770.9774
        43.5004         30.2504
  24467499.2124    2798474.08249   2150047.54946                  24467498.9564
        39.0004         21.7504
 04  7  7 15 36 50.0010000  0  9G 3G 6G15G16G18G21G22G26G29
  23727276.7884   -1317599.54749  -1015774.22947                  23727276.5554
        43.0004         28.5004
  22567523.0214    2988505.67649   2302213.99647                  22567522.1374
        47.0004         32.7504
  21954449.6354    -823699.24249   -634827.10347                  21954447.3414
        48.5004         37.2504
  24275083.4714    1712314.97749   1317291.64446                  24275081.8634
        42.2504         21.5004
  20674216.0594     932060.33249    719769.56148                  20674212.9314
        52.0004         44.0004
  20697014.9944     707062.35249    545045.80948                  20697011.4084
        53.0004         43.5004
  21464095.9164    -290808.41849   -223685.16448                  21464092.1824
        52.7504         42.2504
  23051216.0394    2680932.08649   2067048.45747                  23051214.4664
        43.2504         30.2504
  24475270.3884    2839309.31649   2181867.19546                  24475270.1494
        38.7504         21.7504
 04  7  7 15 37  0.0010000  0  9G 3G 6G15G16G18G21G22G26G29
  23723945.6124   -1335106.58649  -1029416.06847                  23723945.2394
        43.2504         29.5004
  22575649.0694    3031208.59049   2335488.97247                  22575648.2714
        47.0004         33.2504
  21952281.0654    -835092.36349   -643704.86547                  21952279.5034
        48.7504         37.5004
  24279893.9984    1737601.77049   1336995.60746                  24279893.9424
        40.7504         23.2504
  20676906.2804     946199.54349    730787.12448                  20676903.3814
        52.0004         44.5004
  20699049.6534     717756.35249    553378.79648                  20699045.9164
        52.2504         43.5004
  21463533.4104    -293765.51649   -225989.39748                  21463529.0424
        52.2504         42.0004
  23058666.9814    2720084.71949   2097556.98447                  23058665.2054
        44.5004         31.0004
  24483043.9834    2880161.56649   2213700.10446                  24483044.0604
        38.5004         22.5004
 04  7  7 15 37 10.0010000  0  9G 3G 6G15G16G18G21G22G26G29
  23720618.2564   -1352587.60249  -1043037.63647                  23720618.5244
        43.0004         29.0004
  22583779.7544    3073932.20749   2368780.08347                  22583778.3644
        46.5004         34.5004
  21950113.7114    -846483.28949   -652580.89847                  21950112.0794
        49.2504         37.2504
  24284712.2374    1762916.80549   1356721.57246                  24284710.8944
        41.5004         22.5004
  20679602.5404     960365.66849    741825.64948                  20679599.2084
        52.2504         44.5004
  20701088.5674     728471.23049    561728.04748                  20701085.3664
        52.0004         43.5004
  21462975.5174    -296694.31249   -228271.57448                  21462971.6584
        52.5004         41.7504
  23066125.1294    2759278.02049   2128097.18947                  23066123.6694
        44.5004         31.7504
  24490822.7694    2921034.51249   2245549.11646                  24490821.8914
        39.5004         21.7504
 04  7  7 15 37 20.0010000  0  9G 3G 6G15G16G18G21G22G26G29
  23717297.2694   -1370043.66049  -1056639.76947                  23717296.6964
        43.2504         29.2504
  22591913.8214    3116675.32049   2402086.37047                  22591912.1854
        47.0004         33.5004
  21947945.7734    -857873.11749   -661456.08847                  21947944.7394
        49.0004         36.7504
  24289535.4394    1788258.85249   1376468.60046                  24289534.0004
        42.0004         22.0004
  20682302.8014     974557.56349    752884.27948                  20682299.5314
        51.7504         43.7504
  20703131.6494     739205.85249    570092.68048                  20703127.9594
        52.0004         43.0004
  21462423.3634    -299596.04349   -230532.66548                  21462419.7304
        52.0004         42.0004
  23073590.0384    2798510.70349   2158668.10247                  23073588.6854
        46.0004         30.7504
  24498604.2744    2961926.98049   2277413.36646                  24498603.3764
        39.0004         22.2504
 04  7  7 15 37 30.0010000  0  9G 3G 6G15G16G18G21G22G26G29
  23713979.3834   -1387475.91849  -1070223.33847                  23713979.1684
        42.7504         28.5004
  22600051.0554    3159436.65649   2435406.88547                  22600049.3844
        47.2504         32.7504
  21945778.7424    -869263.02049   -670331.33147                  21945777.2704
        48.2504         37.0004
  24294362.0294    1813626.58249   1396235.61646                  24294361.4964
        41.5004         22.2504
  20685008.1504     988774.00049    763962.01048                  20685004.6304
        51.5004         44.2504
  20705177.4974     749959.12949    578471.85948                  20705174.3564
        52.5004         43.2504
  21461876.2874    -302471.91449   -232773.59148                  21461872.0164
        52.0004         42.0004
  23081063.2094    2837781.46549   2189268.67147                  23081062.3654
        45.0004         31.0004
  24506389.6114    3002837.42649   2309291.62246                  24506388.1464
        39.0004         23.0004
 04  7  7 15 37 40.0010000  0  9G 3G 6G15G16G18G21G22G26G29
  23710666.6524   -1404884.82449  -1083788.69547                  23710667.0534
        44.0004         28.5004
  22608190.8484    3202215.46549   2468741.00247                  22608190.1464
        46.7504         34.0004
  21943611.4744    -880653.54349   -679207.07747                  21943609.3004
        49.7504         37.0004
  24299194.8064    1839019.28149   1416022.14146                  24299193.4254
        41.7504         21.5004
  20687718.0904    1003014.19949    775058.26448                  20687714.5494
        52.0004         44.0004
  20707227.6194     760730.46949    586865.10548                  20707224.1244
        52.0004         43.2504
  21461333.9914    -305322.51649   -234994.83948                  21461329.6014
        52.5004         41.7504
  23088543.6784    2877089.64549   2219898.39347                  23088542.2074
        45.2504         30.5004
  24514178.4234    3043765.44949   2341183.53846                  24514177.0354
        39.7504         21.5004
 04  7  7 15 37 50.0010000  0  9G 3G 6G15G16G18G21G22G26G29
  23707359.6174   -1422265.71949  -1097332.25947                  23707358.9154
        44.0004         28.2504
  22616335.6854    3245016.34449   2502092.30647                  22616335.1954
        47.0004         33.5004
  21941444.6054    -892040.03949   -688079.67347                  21941442.7604
        49.5004         36.7504
  24304032.3534    1864441.55949   1435831.64546                  24304031.2974
        41.2504         22.0004
  20690433.4094    1017282.80549    786176.65148                  20690429.9324
        52.0004         44.0004
  20709281.4404     771524.40249    595275.95748                  20709277.7334
        52.0004         43.0004
  21460797.0964    -308143.25849   -237192.82948                  21460792.4814
        52.2504         41.2504
  23096032.0454    2916439.78549   2250560.81847                  23096030.3904
        45.5004         31.0004
  24521970.0564    3084715.41449   2373092.58546                  24521969.5784
        39.0004         23.0004
 04  7  7 15 38  0.0010000  0  9G 3G 6G15G16G18G21G22G26G29
  23704057.1264   -1439621.21949  -1110856.01147                  23704056.2554
        44.0004         28.5004
  22624483.9524    3287836.51649   2535458.64747                  22624483.2644
        47.0004         34.0004
  21939277.9354    -903425.15649   -696951.18447                  21939276.3254
        49.0004         37.2504
  24308875.1314    1889890.61749   1455662.10846                  24308874.0294
        42.2504         22.5004
  20693153.6364    1031577.07049    797315.04048                  20693149.9544
        51.7504         44.2504
  20711339.3034     782338.37549    603702.42748                  20711335.5794
        52.0004         43.2504
  21460265.5714    -310936.86349   -239369.66448                  21460260.4834
        52.0004         42.0004
  23103527.1104    2955828.94949   2281253.66647                  23103525.9404
        45.0004         31.0004
  24529766.6514    3125684.41449   2405016.49246                  24529765.1804
        39.5004         22.5004
 04  7  7 15 38 10.0010000  0  9G 3G 6G15G16G18G21G22G26G29
  23700759.2474   -1456949.02049  -1124358.18747                  23700758.8404
        44.2504         28.0004
  22632636.8894    3330678.00049   2568841.59447                  22632635.8224
        46.0004         34.0004
  21937112.0884    -914806.65649   -705819.88547                  21937110.6524
        49.5004         37.5004
  24313723.0174    1915368.45349   1475514.92446                  24313722.1924
        42.2504         22.2504
  20695878.8464    1045899.12949    808475.08348                  20695875.5594
        52.5004         44.0004
  20713401.3574     793174.59449    612146.24648                  20713397.7984
        53.0004         43.0004
  21459739.5934    -313701.18449   -241523.67148                  21459734.7164
        52.0004         41.2504
  23111030.4924    2995259.28949   2311978.58347                  23111029.2604
        45.5004         31.2504
  24537566.6094    3166674.69949   2436956.91046                  24537565.8854
        40.2504         22.0004
 04  7  7 15 38 20.0010000  0  9G 3G 6G15G16G18G21G22G26G29
  23697466.4854   -1474251.07449  -1137840.32047                  23697466.2254
        44.0004         28.5004
  22640793.0414    3373538.66849   2602239.49547                  22640792.3294
        46.7504         34.2504
  21934946.8484    -926186.57849   -714687.35347                  21934945.0414
        49.2504         38.0004
  24318576.5274    1940872.87949   1495388.49946                  24318575.4424
        42.2504         21.2504
  20698609.0744    1060246.87549    819655.13448                  20698605.9954
        51.5004         44.5004
  20715467.3554     804031.06649    620605.81948                  20715463.5824
        52.5004         43.5004
  21459218.5354    -316438.26649   -243656.46148                  21459213.8044
        53.0004         42.0004
  23118541.4314    3034728.65249   2342733.92347                  23118540.1034
        46.5004         31.7504
  24545370.6814    3207684.03149   2468912.21846                  24545369.0094
        40.2504         24.2504
 04  7  7 15 38 30.0010000  0  9G 3G 6G15G16G18G21G22G26G29
  23694179.7574   -1491526.86349  -1151301.96347                  23694178.4734
        44.0004         28.5004
  22648953.0164    3416418.89849   2635652.63147                  22648951.8864
        46.7504         34.5004
  21932781.5624    -937564.39149   -723553.18347                  21932779.9954
        49.5004         37.5004
  24323434.9574    1966404.41449   1515283.15646                  24323433.8934
        42.2504         21.7504
  20701344.4184    1074620.76649    830855.56748                  20701340.9324
        51.7504         45.0004
  20717537.3574     814908.30149    629081.59048                  20717533.6994
        51.7504         43.2504
  21458702.9634    -319147.71549   -245767.71648                  21458698.2914
        52.5004         42.0004
  23126059.8024    3074237.33249   2373519.86847                  23126058.1924
        46.0004         30.7504
  24553177.5324    3248712.85949   2500882.76146                  24553176.6974
        38.7504         22.5004
 04  7  7 15 38 40.0010000  0  9G 3G 6G15G16G18G21G22G26G29
  23690897.0244   -1508776.46949  -1164743.23447                  23690896.0844
        44.0004         27.5004
  22657116.5864    3459318.44549   2669080.83447                  22657114.9904
        46.7504         34.0004
  21930617.0264    -948940.28549   -732417.51647                  21930615.0204
        49.2504         37.5004
  24328298.3474    1991962.70749   1535198.70046                  24328297.3814
        42.7504         22.2504
  20704084.8984    1089020.55549    842076.18148                  20704081.5414
        51.7504         43.7504
  20719610.9494     825806.11349    637573.39648                  20719607.2084
        51.7504         43.0004
  21458192.4934    -321829.67649   -247857.56448                  21458188.1664
        53.5004         41.5004
  23133584.8824    3113785.10549   2404336.29847                  23133584.0414
        45.7504         30.7504
  24560989.7774    3289760.90249   2532868.19346                  24560988.2074
        39.5004         23.0004
 04  7  7 15 38 50.0010000  0  9G 3G 6G15G16G18G21G22G26G29
  23687618.8474   -1525999.43749  -1178163.70347                  23687618.2904
        43.5004         28.0004
  22665283.9074    3502237.48049   2702524.22947                  22665281.9864
        47.2504         33.7504
  21928452.0904    -960313.85949   -741280.03147                  21928451.2554
        48.7504         37.5004
  24333166.8844    2017547.97349   1555135.31046                  24333166.3754
        42.2504         22.5004
  20706829.6484    1103446.48849    853317.16948                  20706826.8974
        51.2504         43.7504
  20721688.7874     836724.90249    646081.53448                  20721685.0724
        52.0004         43.5004
  21457687.6764    -324483.77349   -249925.68648                  21457683.0924
        52.7504         42.0004
  23141118.9654    3153372.12949   2435183.32947                  23141117.4174
        46.2504         31.0004
  24568803.5894    3330828.33249   2564868.75846                  24568803.1844
        39.2504         22.5004
 04  7  7 15 39  0.0010000  0  9G 3G 6G15G16G18G21G22G26G29
  23684347.5534   -1543195.29349  -1191563.09747                  23684346.0854
        42.7504         27.2504
  22673454.9574    3545176.37149   2735983.08347                  22673453.3404
        47.0004         33.2504
  21926288.6354    -971684.70749   -750140.42747                  21926287.1594
        49.5004         37.0004
  24338040.5164    2043160.51649   1575093.07046                  24338039.6904
        42.2504         22.5004
  20709579.8154    1117898.94149    864578.81848                  20709576.7944
        52.0004         43.5004
  20723770.5494     847665.06649    654606.33748                  20723766.7664
        51.7504         42.5004
  21457187.9794    -327109.71149   -251971.87348                  21457183.8724
        52.2504         41.0004
  23148659.4734    3192998.73049   2466061.16747                  23148657.9434
        46.7504         31.5004
  24576622.5924    3371915.39849   2596884.64646                  24576621.8374
        40.0004         24.0004
 04  7  7 15 39 10.0010000  0  9G 3G 6G15G16G18G21G22G26G29
  23681080.5114   -1560362.91049  -1204940.45247                  23681079.2974
        43.7504         27.5004
  22681630.2294    3588136.05149   2769458.14247                  22681628.3034
        47.0004         33.7504
  21924125.7114    -983051.78549   -758997.89247                  21924124.0634
        49.7504         37.2504
  24342920.6264    2068801.27749   1595072.85746                  24342919.7484
        41.5004         22.5004
  20712335.1424    1132378.83249    875861.84448                  20712332.0854
        52.0004         43.7504
  20725856.5934     858627.72349    663148.66748                  20725853.0864
        52.2504         43.2504
  21456694.0044    -329706.43749   -253995.29548                  21456689.7694
        52.5004         42.0004
  23156207.8684    3232665.77049   2496970.52447                  23156205.9154
        46.5004         31.5004
  24584445.8634    3413023.19149   2628916.68946                  24584444.2854
        38.7504         24.5004
 04  7  7 15 39 20.0010000  0  9G 3G 6G15G16G18G21G22G26G29
  23677818.7434   -1577505.37149  -1218298.21947                  23677817.0364
        43.0004         27.0004
  22689808.2204    3631113.33649   2802946.90747                  22689806.6874
        47.7504         34.0004
  21921962.7354    -994418.08249   -767854.74447                  21921961.2764
        49.2504         37.0004
  24347804.7904    2094467.11749   1615072.20946                  24347803.2134
        42.2504         22.0004
  20715095.2754    1146883.10249    887163.87148                  20715092.1774
        51.2504         43.7504
  20727946.7504     869609.75849    671706.09548                  20727943.0424
        52.5004         43.0004
  21456204.6404    -332277.09849   -255998.40248                  21456200.3374
        52.5004         42.0004
  23163763.6784    3272370.08649   2527908.94647                  23163761.5934
        47.0004         31.2504
  24592270.8984    3454148.44949   2660962.25146                  24592270.5144
        39.0004         24.5004
 04  7  7 15 39 30.0010000  0  9G 3G 6G15G16G18G21G22G26G29
  23674560.8134   -1594622.00849  -1231635.85147                  23674559.6444
        43.7504         28.0004
  22697990.4454    3674108.57449   2836449.66447                  22697987.9294
        47.5004         34.7504
  21919799.8664   -1005783.05949   -776710.57047                  21919798.2944
        49.0004         37.7504
  24352693.3214    2120158.45349   1635091.41646                  24352691.7184
        42.5004         22.5004
  20717860.2404    1161412.23849    898485.26648                  20717856.7854
        52.0004         44.2504
  20730040.0804     880611.75049    680279.06748                  20730036.4204
        52.0004         43.7504
  21455720.3654    -334821.10549   -257980.74748                  21455715.9114
        52.7504         42.0004
  23171326.2524    3312112.07449   2558876.69847                  23171324.5174
        46.7504         31.5004
  24600100.0264    3495291.55949   2693021.81646                  24600099.4174
        40.5004         23.0004
 04  7  7 15 39 40.0010000  0  8G 3G 6G15G16G18G21G22G26
  23671309.3844   -1611712.77049  -1244953.32347                  23671307.7344
        44.2504         28.0004
  22706175.3874    3717121.79349   2869966.45947                  22706173.5274
        48.2504         33.5004
  21917637.6314   -1017146.68449   -785565.33747                  21917636.2414
        50.0004         38.0004
  24357587.6464    2145875.10949   1655130.30946                  24357585.8084
        42.5004         22.5004
  20720630.1504    1175966.12949    909825.95248                  20720627.0504
        51.5004         44.5004
  20732137.7594     891633.67249    688867.57448                  20732133.9464
        52.5004         44.0004
  21455241.6974    -337338.60949   -259942.43848                  21455237.5264
        52.2504         42.0004
  23178895.9094    3351891.62149   2589873.73247                  23178894.1954
        46.2504         30.5004
 04  7  7 15 39 50.0010000  0  9G 3G 6G15G16G18G21G22G26G14
  23668061.5014   -1628777.97349  -1258250.88147                  23668060.1194
        44.0004         28.2504
  22714363.9504    3760152.44549   2903496.80347                  22714362.1424
        47.5004         34.0004
  21915475.4974   -1028509.36749   -794419.38247                  21915473.8514
        49.2504         37.2504
  24362485.0794    2171616.59449   1675188.59246                  24362484.3714
        42.7504         22.7504
  20723403.9494    1190544.23049    921185.51248                  20723400.5944
        51.0004         43.7504
  20734238.7414     902675.10949    697471.29948                  20734234.9094
        52.0004         43.0004
  21454767.4124    -339830.01249   -261883.79148                  21454763.0494
        52.0004         41.7504
  23186472.6734    3391708.05149   2620899.49447                  23186470.9194
        45.7504         29.5004
  24449156.8724     -28085.46159
        41.5004
 04  7  7 15 40  0.0010000  0  9G 3G 6G15G16G18G21G22G26G14
  23664819.2274   -1645814.93449  -1271526.45147                  23664818.5934
        44.2504         28.0004
  22722556.1894    3803203.02749   2937042.71347                  22722554.5564
        47.7504         33.7504
  21913314.2444   -1039868.53949   -803270.66947                  21913312.3074
        49.7504         37.2504
  24367388.8054    2197385.39549   1695268.25646                  24367388.4464
        42.0004         23.0004
  20726183.2504    1205149.23849    932566.04248                  20726180.2584
        52.0004         43.5004
  20736343.9474     913738.75849    706092.32448                  20736340.2664
        52.0004         43.2504
  21454298.5954    -342292.74249   -263802.78248                  21454294.5744
        52.5004         41.2504
  23194057.0284    3431564.10949   2651956.16647                  23194055.1804
        46.5004         29.7504
  24443966.1704     -55361.94549    -34212.41856                  24443965.3054
        41.0004         22.5004
 04  7  7 15 40 10.0010000  0  9G 3G 6G15G16G18G21G22G26G14
  23661582.7644   -1662824.97349  -1284780.99847                  23661581.4644
        44.2504         27.0004
  22730751.7554    3846271.96949   2970602.90247                  22730750.5984
        47.5004         32.7504
  21911152.5504   -1051225.44149   -812120.20947                  21911151.0164
        49.2504         37.0004
  24372298.5404    2223180.00849   1715367.85346                  24372296.8664
        42.0004         22.5004
  20728967.0854    1219779.64849    943966.36048                  20728964.2034
        52.0004         43.5004
  20738453.3994     924823.35249    714729.68148                  20738449.6864
        53.0004         43.0004
  21453835.0954    -344728.18749   -265700.54148                  21453830.8884
        52.0004         41.2504
  23201648.4264    3471458.02749   2683042.30747                  23201646.7484
        46.0004         29.7504
  24438774.8154     -82641.89849    -55469.46546                  24438774.3334
        41.0004         22.5004
 04  7  7 15 40 20.0010000  0  9G 3G 6G15G16G18G21G22G26G14
  23658350.6884   -1679807.18049  -1298013.91347                  23658349.4374
        43.5004         28.0004
  22738950.8424    3889360.21549   3004178.13747                  22738950.0774
        47.2504         33.7504
  21908991.9704   -1062579.19549   -820967.28447                  21908990.3414
        49.5004         37.7504
  24377211.4974    2249001.29349   1735488.33946                  24377210.2414
        42.0004         22.5004
  20731756.1474    1234436.21949    955387.05948                  20731753.2674
        51.5004         44.0004
  20740566.7904     935929.71549    723383.98948                  20740563.1064
        52.5004         43.5004
  21453377.1594    -347135.43749   -267576.31148                  21453372.7494
        52.2504         41.7504
  23209247.1274    3511390.75849   2714158.70547                  23209245.7324
        46.5004         29.5004
  24433583.5094    -109924.25049    -76728.40546                  24433582.4354
        41.0004         23.0004
 04  7  7 15 40 30.0010000  0  9G 3G 6G15G16G18G21G22G26G14
  23655124.2474   -1696761.89849  -1311225.37347                  23655123.7184
        42.7504         27.2504
  22747154.2764    3932467.05549   3037767.85847                  22747152.7914
        47.2504         33.2504
  21906831.9554   -1073930.24249   -829812.25347                  21906830.7024
        49.0004         37.7504
  24382129.9044    2274848.65249   1755629.06746                  24382129.2294
        41.5004         21.7504
  20734549.9514    1249118.40649    966827.72648                  20734547.3364
        52.0004         43.7504
  20742684.2974     947057.22349    732054.76648                  20742680.6754
        52.7504         43.5004
  21452924.2724    -349515.05549   -269430.55248                  21452920.5834
        52.5004         42.0004
  23216853.3524    3551361.65649   2745304.86947                  23216852.1634
        46.0004         29.5004
  24428391.3194    -137209.51649    -97989.64246                  24428389.8224
        41.2504         22.2504
 04  7  7 15 40 40.0010000  0  9G 3G 6G15G16G18G21G22G26G14
  23651902.5234   -1713689.02749  -1324415.33847                  23651902.4454
        43.0004         28.0004
  22755360.7524    3975592.49649   3071372.07547                  22755359.4894
        47.2504         34.0004
  21904672.6284   -1085278.50449   -838655.04447                  21904670.9294
        49.2504         37.0004
  24387053.7934    2300721.96549   1775790.06846                  24387052.9674
        41.2504         22.0004
  20737348.8664    1263826.21149    978288.34148                  20737345.9814
        52.0004         44.0004
  20744805.8474     958206.21149    740742.28648                  20744802.1414
        53.0004         43.7504
  21452476.6844    -351866.94949   -271263.20748                  21452472.6934
        52.5004         42.5004
  23224466.7074    3591370.62149   2776480.65547                  23224465.3114
        46.0004         29.7504
  24423198.1864    -164497.47349   -119252.97446                  24423196.8934
        41.0004         23.0004
 04  7  7 15 40 50.0010000  0  9G 3G 6G15G16G18G21G22G26G14
  23648687.7184   -1730586.21549  -1337581.97347                  23648687.0574
        43.5004         28.0004
  22763571.0744    4018738.63749   3104992.42447                  22763569.0564
        47.2504         33.5004
  21902513.8524   -1096621.72349   -847493.91447                  21902512.1274
        50.0004         37.5004
  24391982.1254    2326623.32049   1795972.90546                  24391981.8434
        41.5004         23.0004
  20740153.0404    1278561.87949    989770.68948                  20740150.0054
        52.0004         44.0004
  20746931.9004     969378.93049    749448.30648                  20746928.5744
        51.7504         43.7504
  21452034.9674    -354189.02749   -273072.60448                  21452031.1844
        52.5004         42.2504
  23232087.8924    3631419.75849   2807687.77247                  23232086.6464
        46.0004         29.2504
  24418005.9064    -191785.94149   -140516.70146                  24418004.1054
        41.5004         22.5004
 04  7  7 15 41  0.0010000  0  9G 3G 6G15G16G18G21G22G26G14
  23645478.2114   -1747452.39849  -1350724.45247                  23645478.0034
        43.7504         28.5004
  22771785.4664    4061906.32049   3138629.54347                  22771783.6974
        47.7504         33.0004
  21900356.3894   -1107958.88749   -856328.07447                  21900354.4144
        49.5004         36.7504
  24396916.9144    2352553.71949   1816178.41846                  24396915.7254
        41.5004         22.2504
  20742962.6674    1293326.28949   1001275.40948                  20742959.4454
        52.0004         44.0004
  20749063.1374     980576.33249    758173.55448                  20749059.4354
        52.5004         44.0004
  21451598.6964    -356480.23849   -274857.97348                  21451594.6854
        52.2504         42.0004
  23239716.9554    3671510.00049   2838926.89647                  23239715.0424
        45.2504         28.5004
  24412813.1784    -219073.70349   -161779.87546                  24412811.3434
        41.2504         22.2504
 04  7  7 15 41 10.0010000  0  9G 3G 6G15G16G18G21G22G26G14
  23642274.6804   -1764287.84449  -1363843.00147                  23642273.9054
        43.5004         27.7504
  22780003.8974    4105095.09049   3172283.13947                  22780002.7264
        46.7504         32.0004
  21898200.3254   -1119290.34449   -865157.77047                  21898198.3194
        50.5004         37.5004
  24401857.5424    2378512.52749   1836406.02846                  24401856.0394
        42.0004         22.5004
  20745777.7904    1308118.95349   1012802.15548                  20745774.8104
        51.7504         44.0004
  20751198.4184     991798.05149    766917.75248                  20751194.9944
        52.5004         43.7504
  21451168.5744    -358741.07449   -276619.64948                  21451164.7854
        52.2504         42.0004
  23247352.8104    3711640.68049   2870197.56147                  23247352.1114
        45.0004         27.5004
  24407620.1054    -246361.14149   -183042.77346                  24407618.5524
        40.5004         22.7504
 04  7  7 15 41 20.0010000  0  9G 3G 6G15G16G18G21G22G26G14
  23639077.4994   -1781093.74649  -1376938.49547                  23639076.3564
        44.0004         28.7504
  22788226.1174    4148303.75049   3205952.20547                  22788225.1524
        46.5004         32.0004
  21896045.1884   -1130617.27049   -873983.94247                  21896043.0784
        50.7504         37.5004
  24406801.8274    2404498.55949   1856654.85146                  24406800.3624
        43.0004         22.5004
  20748597.4404    1322938.65249   1024349.96848                  20748594.8334
        51.5004         43.7504
  20753338.1644    1003042.98049    775680.03748                  20753334.6404
        52.0004         44.0004
  21450743.9334    -360972.66449   -278358.55448                  21450740.0934
        52.2504         41.5004
  23254997.4314    3751810.63749   2901498.79947                  23254995.9304
        45.7504         26.7504
  24402428.0134    -273649.33649   -204306.27446                  24402425.9104
        40.0004         21.7504
 04  7  7 15 41 30.0010000  0  9G 3G 6G15G16G18G21G22G26G14
  23635883.2444   -1797873.73049  -1390013.78147                  23635882.7294
        44.5004         28.2504
  22796451.6144    4191528.32449   3239633.64847                  22796450.2014
        47.0004         32.5004
  21893889.7274   -1141943.34049   -882809.45447                  21893887.7524
        50.0004         38.5004
  24411751.7104    2430507.87549   1876921.82646                  24411750.1824
        43.7504         24.7504
  20751422.1734    1337781.53149   1035915.85648                  20751419.1994
        52.5004         44.2504
  20755481.7154    1014307.34849    784457.45548                  20755477.8004
        52.5004         44.0004
  21450323.8134    -363178.81649   -280077.62948                  21450319.8834
        52.2504         41.7504
  23262648.1874    3792015.88349   2932827.55346                  23262646.8164
        44.5004         25.5004
  24397233.9154    -300941.92249   -225573.21946                  24397232.3774
        40.2504         22.2504
 04  7  7 15 41 40.0010000  0  9G 3G 6G15G16G18G21G22G26G14
  23632697.5664   -1814621.20749  -1403063.80547                  23632696.3804
        45.0004         28.7504
  22804680.9834    4234775.32049   3273332.60447                  22804680.0534
        47.5004         32.5004
  21891735.7894   -1153262.05549   -891629.24347                  21891733.4694
        50.0004         37.7504
  24416706.8274    2456546.95749   1897212.02646                  24416704.8494
        44.0004         24.0004
  20754252.2054    1352654.16449   1047504.91248                  20754249.2114
        52.0004         44.5004
  20757630.1774    1025597.68849    793255.11948                  20757626.4474
        52.0004         43.7504
  21449910.0594    -365353.09049   -281771.86548                  21449905.8754
        52.2504         41.5004
  23270307.3024    3832262.90649   2964188.85747                  23270305.3724
        44.7504         27.0004
  24392040.3394    -328232.25049   -246838.37546                  24392039.1304
        40.5004         22.0004
 04  7  7 15 41 50.0010000  0  9G 3G 6G15G16G18G21G22G26G14
  23629516.0694   -1831336.33249  -1416088.55547                  23629515.4334
        44.7504         28.0004
  22812915.0874    4278044.39149   3307048.71747                  22812914.0914
        47.0004         32.0004
  21889583.2564   -1164573.55149   -900443.39147                  21889581.4874
        49.5004         37.5004
  24421667.5744    2482615.44549   1917525.10046                  24421665.4204
        44.5004         25.0004
  20757088.3604    1367556.28549   1059116.94348                  20757084.9244
        52.0004         44.2504
  20759783.5654    1036913.84049    802072.89748                  20759780.2244
        52.7504         43.7504
  21449502.3524    -367495.66449   -283441.39948                  21449498.7124
        52.5004         42.0004
  23277973.7914    3872551.44549   2995582.50147                  23277972.5304
        45.2504         27.5004
  24386847.4164    -355520.44549   -268101.87246                  24386846.6724
        40.0004         24.0004
 04  7  7 15 42  0.0010000  0  9G 3G 6G15G16G18G21G22G26G14
  23626340.9564   -1848020.90649  -1429089.53247                  23626339.7694
        45.0004         28.7504
  22821153.1034    4321333.59449   3340780.53647                  22821151.2144
        47.5004         33.2504
  21887431.7784   -1175879.70349   -909253.37947                  21887429.8724
        49.5004         38.0004
  24426633.6754    2508711.35549   1937859.59146                  24426631.6444
        43.7504         24.7504
  20759929.1174    1382485.99649   1070750.48748                  20759926.4274
        52.2504         45.0004
  20761941.4814    1048253.88349    810909.29348                  20761937.4864
        52.5004         43.7504
  21449100.3404    -369608.53549   -285087.79048                  21449096.1774
        52.0004         42.5004
  23285648.0874    3912879.37949   3027006.84047                  23285646.7224
        44.7504         27.7504
  24381655.2734    -382808.32849   -289365.12046                  24381654.2154
        39.5004         25.2504
 04  7  7 15 42 10.0010000  0  9G 3G 6G15G16G18G21G22G26G14
  23623171.8774   -1864672.03949  -1442064.44047                  23623171.0614
        45.2504         29.0004
  22829395.3294    4364645.56349   3374530.11347                  22829393.5874
        47.5004         33.0004
  21885281.4304   -1187177.69949   -918057.00547                  21885280.2964
        49.0004         38.0004
  24431604.8454    2534837.34049   1958217.44146                  24431603.6804
        43.2504         23.5004
  20762776.1054    1397445.92249   1082407.57248                  20762773.1854
        51.7504         44.5004
  20764104.4324    1059620.63349    819766.49948                  20764100.5534
        52.2504         43.2504
  21448704.2774    -371688.89549   -286708.84648                  21448700.5244
        51.5004         42.0004
  23293329.9414    3953249.30549   3058463.91747                  23293328.6984
        44.2504         27.2504
  24376462.5274    -410093.10249   -310625.93446                  24376462.0364
        40.0004         22.5004
 04  7  7 15 42 20.0010000  0  9G 3G 6G15G16G18G21G22G26G14
  23620009.9634   -1881292.70349  -1455015.59547                  23620008.2164
        45.0004         27.5004
  22837640.5084    4407977.20349   3408295.01747                  22837639.6214
        46.7504         33.0004
  21883132.6864   -1198470.50849   -926856.60147                  21883131.3474
        49.7504         38.2504
  24436581.4104    2560990.32049   1978596.35846                  24436580.2764
        42.7504         22.5004
  20765628.0864    1412432.99249   1094085.80448                  20765625.5504
        52.0004         44.2504
  20766272.0284    1071011.16449    828642.24648                  20766268.6474
        52.0004         43.2504
  21448314.5344    -373739.76249   -288306.93448                  21448310.1594
        52.2504         42.0004
  23301019.8104    3993658.23849   3089951.37247                  23301018.6854
        44.5004         26.7504
  24371270.7364    -437377.72749   -331886.61846                  24371269.6354
        40.5004         24.0004
 04  7  7 15 42 30.0010000  0  9G 3G 6G15G16G18G21G22G26G14
  23616853.7154   -1897880.70349  -1467941.32647                  23616851.6384
        45.5004         28.0004
  22845890.5034    4451330.49249   3442076.77547                  22845889.4954
        47.2504         32.7504
  21880985.1164   -1209756.04349   -935650.52047                  21880983.4684
        50.0004         38.2504
  24441563.6594    2587172.25049   1998997.88746                  24441562.3874
        43.0004         22.2504
  20768485.5704    1427449.28149   1105786.80648                  20768482.4734
        52.0004         43.7504
  20768444.4514    1082427.56649    837538.14348                  20768440.8504
        52.5004         43.2504
  21447930.0864    -375759.06649   -289880.41348                  21447926.0074
        52.5004         41.5004
  23308716.9564    4034108.03949   3121470.67147                  23308716.4004
        45.0004         27.2504
  24366079.0904    -464659.83649   -353145.42946                  24366077.4284
        40.7504         24.7504
 04  7  7 15 42 40.0010000  0  9G 3G 6G15G16G18G21G22G26G14
  23613702.4174   -1914437.23449  -1480842.52947                  23613701.3864
        45.5004         28.2504
  22854143.7824    4494703.97749   3475874.25147                  22854143.2014
        47.0004         32.7504
  21878838.9104   -1221035.57049   -944439.76647                  21878837.1124
        49.5004         38.0004
  24446550.9644    2613381.77749   2019420.82946                  24446550.1634
        41.7504         22.5004
  20771348.1554    1442493.42649   1117509.50948                  20771345.0614
        51.5004         43.7504
  20770621.7384    1093868.50849    846453.15048                  20770618.2714
        52.2504         43.0004
  21447551.5984    -377748.14849   -291430.36048                  21447547.1784
        52.5004         41.5004
  23316421.6574    4074597.23449   3153020.66147                  23316420.6904
        44.0004         27.7504
  24360887.4584    -491940.80949   -374403.27346                  24360886.4944
        41.5004         24.5004
 04  7  7 15 42 50.0010000  0  9G 3G 6G15G16G18G21G22G26G14
  23610558.6924   -1930960.32449  -1493717.65847                  23610557.0474
        44.7504         29.0004
  22862402.5644    4538099.46949   3509688.91147                  22862401.3184
        46.0004         32.5004
  21876694.2614   -1232307.16049   -953222.80247                  21876692.1134
        49.2504         38.0004
  24451543.9104    2639620.66449   2039866.71746                  24451543.4984
        41.5004         22.5004
  20774216.9844    1457567.23849   1129255.34548                  20774213.6184
        51.7504         44.0004
  20772803.8514    1105335.96149    855388.84348                  20772800.0734
        52.2504         43.7504
  21447179.2024    -379705.16449   -292955.29448                  21447175.0564
        52.2504         42.0004
  23324134.7274    4115127.71549   3184602.86647                  23324133.6534
        44.7504         28.5004
  24355697.3994    -519218.55149   -395658.61647                  24355695.8104
        41.5004         26.5004
 04  7  7 15 43  0.0010000  0  9G 3G 6G15G16G18G21G22G26G14
  23607420.6734   -1947450.59849  -1506567.23747                  23607419.0324
        43.0004         28.5004
  22870663.7324    4581516.19149   3543520.10047                  22870663.4364
        43.0004         32.0004
  21874550.5634   -1243571.44149   -962000.17447                  21874548.4464
        46.0004         38.2504
  24456542.5014    2665888.10249   2060334.80846                  24456541.5674
        39.0004         22.2504
  20777090.7804    1472669.98049   1141023.70848                  20777087.1664
        47.5004         43.5004
  20774990.5884    1116829.36749    864344.74148                  20774987.1144
        48.0004         43.0004
  21446812.6894    -381630.79749   -294455.79748                  21446808.4794
        47.7504         41.0004
  23331854.8664    4155698.62549   3216216.54247                  23331853.6724
        42.0004         26.5004
  24350506.7854    -546493.71949   -416911.97046                  24350505.9554
        40.2504         25.0004
 04  7  7 15 43 10.0010000  0  9G 3G 6G15G16G18G21G22G26G14
  23604288.5594   -1963906.53149  -1519390.02647                  23604287.6314
        45.0004         29.2504
  22878930.5734    4624955.62949   3577368.97647                  22878929.3364
        46.0004         32.2504
  21872408.9934   -1254826.91449   -970770.67647                  21872406.9124
        49.0004         39.0004
  24461547.1654    2692185.44549   2080826.18146                  24461545.8144
        42.2504         24.2504
  20779970.3274    1487802.97349   1152815.65348                  20779966.9814
        51.0004         44.5004
  20777183.3474    1128350.11749    873321.96248                  20777179.1794
        51.5004         43.5004
  21446452.5654    -383523.65249   -295930.74348                  21446448.0344
        50.7504         41.7504
  23339583.4334    4196311.31649   3247862.76347                  23339581.7954
        44.2504         29.0004
  24345317.2294    -573764.75049   -438162.08547                  24345316.4744
        42.0004         26.7504
 04  7  7 15 43 20.0010000  0  9G 3G 6G15G16G18G21G22G26G14
  23601163.5024   -1980329.60549  -1532187.22947                  23601162.0644
        44.7504         28.2504
  22887201.0714    4668416.03149   3611234.19147                  22887199.8424
        46.5004         32.0004
  21870268.2054   -1266075.10549   -979535.50147                  21870266.4094
        48.2504         38.5004
  24466556.8274    2718511.03549   2101339.59046                  24466555.5754
        43.0004         23.0004
  20782855.7184    1502964.64849   1164629.93248                  20782851.9304
        52.0004         44.0004
  20779380.6794    1139896.71549    882319.29548                  20779376.6704
        52.5004         43.0004
  21446098.4324    -385385.17249   -297381.28748                  21446093.5964
        50.5004         41.2504
  23347318.7514    4236964.15649   3279540.28347                  23347317.8844
        44.2504         28.5004
  24340127.7364    -601033.05149   -459410.07546                  24340127.1084
        41.5004         24.7504
 04  7  7 15 43 30.0010000  0  9G 3G 6G15G16G18G21G22G26G14
  23598043.6704   -1996721.45749  -1544960.10247                  23598042.7174
        45.7504         29.5004
  22895474.2984    4711895.69549   3645114.42147                  22895472.9824
        46.0004         32.2504
  21868128.7504   -1277317.64549   -988295.91847                  21868126.9974
        48.0004         37.7504
  24471571.5914    2744863.11349   2121873.72746                  24471570.3814
        43.0004         22.2504
  20785745.7994    1518153.23049   1176465.19448                  20785742.5724
        52.0004         43.7504
  20781582.0684    1151467.48849    891335.48648                  20781578.6024
        52.2504         43.0004
  21445749.6244    -387217.14549   -298808.79248                  21445745.4194
        51.0004         41.7504
  23355062.9644    4277655.31349   3311247.65247                  23355061.5854
        44.7504         28.5004
  24334939.4624    -628300.31649   -480657.27746                  24334938.4394
        42.7504         24.2504
 04  7  7 15 43 40.0010000  0  9G 3G 6G15G16G18G21G22G26G14
  23594931.2924   -2013077.50449  -1557705.07147                  23594930.7724
        44.5004         29.0004
  22903752.5834    4755398.78149   3679012.90447                  22903751.6014
        46.5004         31.5004
  21865991.1524   -1288550.18449   -997048.53847                  21865989.6994
        49.0004         38.5004
  24476592.4564    2771245.91449   2142431.68846                  24476590.4434
        43.2504         25.0004
  20788642.0004    1533373.17249   1188324.88448                  20788639.0524
        52.0004         43.7504
  20783789.4024    1163066.76649    900373.89048                  20783785.8824
        52.7504         43.0004
  21445407.5214    -389015.27349   -300209.92748                  21445403.1494
        51.5004         41.5004
  23362814.1984    4318389.09449   3342988.26647                  23362812.6544
        44.5004         29.7504
  24329751.6434    -655562.03949   -501900.17747                  24329751.0474
        43.2504         26.5004
 04  7  7 15 43 50.0010000  0  9G 3G 6G15G16G18G21G22G26G14
  23591826.3114   -2029397.99249  -1570422.34747                  23591824.5834
        45.0004         28.7504
  22912035.5204    4798924.96949   3712929.39547                  22912034.0694
        46.5004         31.5004
  21863855.7234   -1299772.90649  -1005793.52147                  21863854.3594
        49.2504         38.5004
  24481618.2324    2797659.06649   2163013.32746                  24481617.0794
        43.2504         24.0004
  20791544.2834    1548624.03149   1200208.66548                  20791541.0374
        52.0004         43.2504
  20786001.9274    1174694.44549    909434.42048                  20785998.8924
        52.0004         42.5004
  21445071.4574    -390779.80549   -301584.89148                  21445067.6514
        51.2504         41.0004
  23370573.1754    4359164.98049   3374761.65247                  23370572.8224
        45.0004         29.7504
  24324564.9394    -682818.47349   -523138.95947                  24324563.9234
        43.5004         26.0004
 04  7  7 15 44  0.0010000  0  9G 3G 6G15G16G18G21G22G26G14
  23588726.4974   -2045685.65249  -1583114.02447                  23588725.5044
        45.7504         29.7504
  22920322.1174    4842471.43449   3746861.70747                  22920320.5764
        46.2504         31.0004
  21861721.5214   -1310988.54749  -1014532.96547                  21861720.3624
        47.7504         39.0004
  24486650.3754    2824099.64849   2183616.40847                  24486648.5624
        43.7504         26.0004
  20794451.9194    1563903.07049   1212114.41448                  20794448.2824
        51.5004         44.2504
  20788219.8554    1186347.75449    918514.92148                  20788215.6504
        52.5004         43.0004
  21444741.7784    -392513.57049   -302935.87648                  21444737.7734
        50.2504         41.5004
  23378340.2214    4399980.14149   3406565.65547                  23378339.1204
        44.7504         31.0004
  24319378.3824    -710072.20749   -544375.56447                  24319377.8054
        43.2504         27.5004
 04  7  7 15 44 10.0010000  0  9G 3G 6G15G16G18G21G22G26G14
  23585633.8054   -2061941.19549  -1595780.69047                  23585632.4424
        45.5004         29.5004
  22928612.7274    4886037.10949   3780808.96947                  22928610.9264
        46.7504         31.5004
  21859588.3794   -1322197.83649  -1023267.47647                  21859586.6404
        49.0004         39.0004
  24491686.1034    2850566.83649   2204240.16346                  24491684.8054
        42.7504         24.5004
  20797364.5774    1579209.40249   1224041.42048                  20797361.3744
        52.0004         44.2504
  20790442.1404    1198025.89149    927614.77348                  20790438.4784
        52.2504         43.0004
  21444417.3924    -394217.36349   -304263.49548                  21444413.6474
        52.0004         41.7504
  23386114.7924    4440833.73049   3438399.59147                  23386113.5674
        44.7504         30.5004
  24314193.2864    -737323.96149   -565610.66047                  24314191.8084
        44.2504         27.7504
 04  7  7 15 44 20.0010000  0  9G 3G 6G15G16G18G21G22G26G14
  23582546.9454   -2078162.17249  -1608420.40347                  23582545.5134
        44.5004         29.7504
  22936907.2394    4929624.41449   3814773.07947                  22936905.6854
        46.7504         32.5004
  21857456.8074   -1333398.43749  -1031995.22748                  21857454.9764
        49.2504         39.5004
  24496728.2374    2877062.91049   2224886.40347                  24496726.9534
        43.0004         26.2504
  20800282.7374    1594545.34849   1235991.50648                  20800279.9944
        52.2504         44.7504
  20792669.5344    1209731.26649    936735.83348                  20792665.9084
        52.0004         43.7504
  21444099.6694    -395888.83249   -305565.94148                  21444095.5694
        51.7504         42.2504
  23393896.5344    4481727.91049   3470265.17147                  23393895.4464
        44.5004         30.5004
  24309007.7384    -764571.20749   -586842.29547                  24309006.5434
        44.0004         27.2504
 04  7  7 15 44 30.0010000  0  9G 3G 6G15G16G18G21G22G26G14
  23579466.9304   -2094347.92249  -1621032.65547                  23579465.7614
        44.7504         29.2504
  22945205.4944    4973233.93049   3848754.50047                  22945204.1904
        46.5004         31.7504
  21855327.3904   -1344589.69149  -1040715.67547                  21855325.7194
        47.7504         39.2504
  24501776.3424    2903588.23449   2245555.47746                  24501774.9164
        43.0004         25.0004
  20803206.8314    1609911.41049   1247965.06648                  20803203.7524
        52.0004         44.5004
  20794902.0774    1221464.44949    945878.58348                  20794898.5934
        52.5004         43.7504
  21443787.3064    -397527.44549   -306842.79248                  21443783.7144
        50.0004         41.7504
  23401686.4634    4522663.12949   3502162.71647                  23401685.0734
        45.7504         30.7504
  24303823.5564    -791813.36349   -608069.94946                  24303822.4104
        43.2504         25.2504
 04  7  7 15 44 40.0010000  0  9G 3G 6G15G16G18G21G22G26G14
  23576392.8474   -2110501.25849  -1633619.68847                  23576391.5744
        44.2504         29.5004
  22953507.9384    5016862.38749   3882750.68047                  22953506.2334
        46.0004         32.0004
  21853199.0334   -1355774.49249  -1049431.08847                  21853197.1944
        46.5004         39.0004
  24506828.4474    2930139.87949   2266245.03346                  24506827.6484
        43.2504         22.7504
  20806135.9564    1625304.58249   1259959.74048                  20806132.7144
        52.2504         44.2504
  20797139.8244    1233222.59449    955040.77048                  20797136.2424
        52.7504         43.0004
  21443481.9594    -399136.20749   -308096.37348                  21443477.4554
        49.0004         41.2504
  23409483.3494    4563636.30149   3534089.84147                  23409482.7164
        45.0004         30.5004
  24298640.4284    -819053.27049   -629295.81746                  24298639.3724
        43.2504         24.7504
 04  7  7 15 44 50.0010000  0  9G 3G 6G15G16G18G21G22G26G14
  23573325.1214   -2126622.22749  -1646181.48247                  23573324.0854
        44.7504         30.0004
  22961813.7024    5060509.67249   3916761.53347                  22961812.2164
        47.2504         32.5004
  21851071.8224   -1366952.95349  -1058141.58947                  21851069.8064
        47.7504         39.0004
  24511886.0094    2956717.53949   2286954.92246                  24511885.3984
        42.5004         25.5004
  20809070.5474    1640724.68449   1271975.39348                  20809067.5324
        53.0004         44.5004
  20799382.2204    1245005.59049    964222.31048                  20799378.1424
        52.5004         43.2504
  21443181.3184    -400715.23049   -309326.77748                  21443177.3464
        50.2504         42.2504
  23417287.2254    4604647.27049   3566046.44247                  23417286.3944
        46.2504         31.0004
  24293457.0614    -846290.95749   -650519.97947                  24293456.4684
        44.2504         26.5004
 04  7  7 15 45  0.0010000  0  9G 3G 6G15G16G18G21G22G26G14
  23570263.5284   -2142710.75449  -1658717.97547                  23570262.3584
        43.5004         28.2504
  22970123.2794    5104175.73049   3950787.01147                  22970121.8444
        47.0004         32.0004
  21848945.7454   -1378124.95749  -1066847.03347                  21848944.2244
        49.0004         38.0004
  24516948.6214    2983321.19149   2307684.95146                  24516947.9244
        42.2504         24.2504
  20812010.0144    1656171.81349   1284012.11648                  20812006.6874
        51.7504         43.2504
  20801628.9714    1256813.59849    973423.36048                  20801625.3924
        52.0004         43.0004
  21442886.0794    -402264.43749   -310533.94548                  21442882.4464
        51.0004         41.5004
  23425098.9754    4645695.98849   3598032.43047                  23425097.9384
        45.2504         31.2504
  24288274.2234    -873526.25849   -671742.23747                  24288273.2174
        44.0004         25.7504
 04  7  7 15 45 10.0010000  0  9G 3G 6G15G16G18G21G22G26G14
  23567207.6414   -2158769.10249  -1671230.96347                  23567206.6274
        44.0004         29.2504
  22978435.6584    5147858.11349   3984825.21547                  22978434.5624
        46.5004         32.7504
  21846820.3784   -1389292.93449  -1075549.35447                  21846818.7924
        45.7504         39.0004
  24522015.5444    3009948.35249   2328433.37546                  24522014.5084
        42.2504         24.0004
  20814954.3534    1671643.40249   1296067.89248                  20814951.1454
        51.7504         44.5004
  20803880.2614    1268643.94549    982641.81648                  20803876.6634
        51.7504         43.0004
  21442596.6854    -403786.32849   -311719.84248                  21442592.7024
        48.5004         42.0004
  23432916.8824    4686779.83649   3630045.78447                  23432916.3674
        45.0004         31.0004
  24283092.3724    -900761.51649   -692964.47547                  24283090.8054
        44.7504         25.7504
 04  7  7 15 45 20.0010000  0  9G 3G 6G15G16G18G21G22G26G14
  23564157.6724   -2174797.03549  -1683720.26647                  23564156.8984
        43.5004         28.7504
  22986751.0644    5191556.75449   4018876.07147                  22986750.0894
        45.7504         32.5004
  21844696.1334   -1400456.67649  -1084248.37947                  21844694.4784
        47.0004         39.2504
  24527087.2564    3036598.99649   2349200.05846                  24527086.2274
        42.2504         22.5004
  20817903.0744    1687139.54349   1308142.80848                  20817899.8194
        52.0004         44.2504
  20806135.8764    1280497.02349    991877.97548                  20806131.8844
        53.0004         43.0004
  21442312.3054    -405280.64849   -312884.24748                  21442308.5074
        49.7504         42.2504
  23440741.7324    4727898.91849   3662086.61947                  23440740.7364
        45.5004         30.2504
  24277908.9444    -927996.50849   -714186.58547                  24277908.1564
        45.0004         26.7504
 04  7  7 15 45 30.0010000  0  9G 3G 6G15G16G18G21G22G26G14
  23561113.9864   -2190791.66449  -1696183.59947                  23561113.1444
        43.5004         30.0004
  22995070.4004    5235274.50449   4052941.81747                  22995069.3424
        45.7504         33.0004
  21842573.6044   -1411613.28149  -1092941.83648                  21842571.3424
        47.2504         40.0004
  24532163.3834    3063275.94949   2369987.28446                  24532162.0684
        42.0004         22.7504
  20820857.1114    1702663.19149   1320239.16448                  20820853.5994
        51.7504         44.5004
  20808396.2144    1292375.81649   1001134.19148                  20808392.4234
        52.7504         43.2504
  21442033.7164    -406744.73049   -314025.09148                  21442029.8144
        50.0004         42.0004
  23448573.2784    4769055.94149   3694156.99347                  23448572.2554
        45.0004         31.7504
  24272727.1874    -955228.26249   -735406.10146                  24272725.9904
        43.7504         25.0004
 04  7  7 15 45 40.0010000  0  9G 3G 6G15G16G18G21G22G26G14
  23558076.6594   -2206754.05549  -1708621.84347                  23558075.6424
        44.5004         30.0004
  23003393.2044    5279009.96549   4087021.37547                  23003392.2004
        46.0004         33.0004
  21840451.2434   -1422763.91049  -1101630.63748                  21840449.5024
        48.0004         39.5004
  24537245.2604    3089977.84049   2390793.91046                  24537243.7624
        42.7504         23.0004
  20823816.0194    1718212.96949   1332355.86448                  20823812.0894
        52.5004         44.5004
  20810661.5804    1304279.07849   1010409.45148                  20810657.3104
        52.5004         43.5004
  21441760.5904    -408179.76649   -315143.29948                  21441756.5654
        50.7504         42.2504
  23456411.9494    4810249.53949   3726255.88747                  23456411.0464
        44.7504         30.7504
  24267545.2644    -982457.85249   -756623.94747                  24267543.9744
        44.7504         26.5004
 04  7  7 15 45 50.0010000  0  9G 3G 6G15G16G18G21G22G26G14
  23555044.0184   -2222689.06649  -1721038.72147                  23555043.1054
        44.2504         30.2504
  23011718.1674    5322758.31649   4121110.96647                  23011717.4414
        46.5004         33.0004
  21838329.4054   -1433913.33649  -1110318.48847                  21838328.2054
        48.5004         39.0004
  24542330.0604    3116699.72749   2411616.15546                  24542328.6374
        42.5004         22.7504
  20826779.0004    1733783.95349   1344489.09448                  20826775.5784
        52.5004         44.0004
  20812930.0814    1316201.93449   1019699.99048                  20812926.4944
        53.0004         43.2504
  21441492.1974    -409590.59049   -316242.63548                  21441488.9194
        51.2504         42.0004
  23464257.0594    4851474.75049   3758379.41747                  23464256.0274
        45.0004         29.7504
  24262363.3454   -1009690.01649   -777843.80247                  24262362.2214
        44.0004         26.5004
 04  7  7 15 46  0.0010000  0  9G 3G 6G15G16G18G21G22G26G14
  23552017.9994   -2238593.20749  -1733431.57047                  23552016.5874
        44.0004         29.0004
  23020045.8624    5366522.82049   4155213.16047                  23020045.4584
        45.5004         32.7504
  21836209.0204   -1445058.18449  -1119002.78747                  21836207.2024
        49.5004         39.0004
  24547419.2774    3143444.96549   2432456.58146                  24547417.6954
        43.2504         22.5004
  20829746.8564    1749379.46949   1356641.44248                  20829743.1264
        51.7504         43.7504
  20815203.4284    1328147.89549   1029008.53448                  20815199.5474
        51.5004         43.2504
  21441229.1604    -410973.82049   -317320.47648                  21441225.1374
        52.0004         42.2504
  23472108.8094    4892734.88349   3790530.13247                  23472107.5924
        43.0004         30.0004
  24257181.0774   -1036921.35549   -799063.01446                  24257180.4674
        42.7504         24.0004
